FW0225 Weather Reports


Display with metric or nautical units.
time (UTC)temp
F
wind
direction
speed
MPH
gust
MPH
rain 1hr
in
rain 24hr
in
rain mn
in
humidity
%
barometer
mb
20260905194532 80 239 2.0 6.0 0.00 0.00 0.00 60 1018.3
20260905194054 80 234 2.0 5.0 0.00 0.00 0.00 60 1018.2
20260905193524 80 238 2.0 3.0 0.00 0.00 0.00 60 1018.3
20260905193018 80 236 1.0 4.0 0.00 0.00 0.00 61 1018.1
20260905192524 80 236 2.0 4.0 0.00 0.00 0.00 61 1018.0
20260905192026 80 236 1.0 4.0 0.00 0.00 0.00 60 1018.1
20260905191532 80 236 2.0 4.0 0.00 0.00 0.00 60 1018.1
20260905191015 80 234 1.0 2.0 0.00 0.00 0.00 60 1018.1
20260905190520 80 234 1.0 4.0 0.00 0.00 0.00 59 1018.0
20260905190016 81 234 2.0 4.0 0.00 0.00 0.00 60 1017.9
20260905185520 81 233 1.0 6.0 0.00 0.00 0.00 59 1017.9
20260905185024 81 232 1.0 6.0 0.00 0.00 0.00 59 1017.8
20260905184530 81 219 2.0 4.0 0.00 0.00 0.00 60 1017.7
20260905184011 81 217 1.0 4.0 0.00 0.00 0.00 59 1017.6
20260905183537 81 217 2.0 6.0 0.00 0.00 0.00 60 1017.4
20260905183014 81 216 1.0 6.0 0.00 0.00 0.00 60 1017.4
20260905182540 80 221 1.0 3.0 0.00 0.00 0.00 61 1017.3
20260905182021 80 219 1.0 3.0 0.00 0.00 0.00 61 1017.3
20260905181528 80 219 1.0 3.0 0.00 0.00 0.00 61 1017.2
20260905181029 80 219 0.0 3.0 0.00 0.00 0.00 63 1017.2
20260905180514 80 219 0.0 4.0 0.00 0.00 0.00 61 1017.2
20260905180027 80 220 1.0 2.0 0.00 0.00 0.00 62 1017.1
20260905175514 80 220 0.0 2.0 0.00 0.00 0.00 63 1017.0
20260905175038 80 220 1.0 2.0 0.00 0.00 0.00 64 1016.9
20260905174522 80 220 1.0 2.0 0.00 0.00 0.00 64 1016.8
20260905174023 81 220 0.0 2.0 0.00 0.00 0.00 64 1016.8
20260905173549 81 220 1.0 3.0 0.00 0.00 0.00 64 1016.7
20260905173022 82 220 1.0 3.0 0.00 0.00 0.00 63 1016.6
20260905172530 82 220 1.0 3.0 0.00 0.00 0.00 60 1016.5
20260905172011 82 220 1.0 3.0 0.00 0.00 0.00 61 1016.4
20260905171536 82 220 1.0 3.0 0.00 0.00 0.00 60 1016.3
20260905171018 81 219 1.0 3.0 0.00 0.00 0.00 62 1016.2
20260905170528 81 219 0.0 4.0 0.00 0.00 0.00 64 1016.2
20260905170023 80 219 1.0 4.0 0.00 0.00 0.00 65 1016.1
20260905165529 80 219 1.0 3.0 0.00 0.00 0.00 67 1016.1
20260905165011 80 219 0.0 1.0 0.00 0.00 0.00 71 1016.1
20260905164515 80 219 0.0 3.0 0.00 0.00 0.00 72 1016.0
20260905164017 81 219 1.0 3.0 0.00 0.00 0.00 72 1015.8
20260905163545 81 219 0.0 0.0 0.00 0.00 0.00 71 1015.6
20260905163041 81 219 0.0 1.0 0.00 0.00 0.00 71 1015.5
20260905162527 82 219 0.0 1.0 0.00 0.00 0.00 70 1015.4
20260905162030 82 219 0.0 0.0 0.00 0.00 0.00 70 1015.4
20260905161516 82 219 0.0 0.0 0.00 0.00 0.00 69 1015.4
20260905161020 83 219 0.0 0.0 0.00 0.00 0.00 69 1015.4
20260905160526 83 219 0.0 0.0 0.00 0.00 0.00 68 1015.4
20260905160021 83 219 0.0 0.0 0.00 0.00 0.00 68 1015.3
20260905155549 83 219 0.0 0.0 0.00 0.00 0.00 68 1015.3
20260905155011 84 219 0.0 1.0 0.00 0.00 0.00 66 1015.2
20260905154538 84 219 0.0 1.0 0.00 0.00 0.00 65 1015.1
20260905154025 84 219 0.0 1.0 0.00 0.00 0.00 64 1015.1
20260905153512 84 219 1.0 1.0 0.00 0.00 0.00 65 1015.1
20260905153028 85 219 0.0 2.0 0.00 0.00 0.00 65 1015.2
20260905152513 85 219 1.0 2.0 0.00 0.00 0.00 65 1015.2
20260905152015 85 219 1.0 3.0 0.00 0.00 0.00 64 1015.1
20260905151522 85 219 1.0 3.0 0.00 0.00 0.00 63 1015.2
20260905151024 86 219 2.0 3.0 0.00 0.00 0.00 61 1015.3
20260905150529 87 219 1.0 3.0 0.00 0.00 0.00 61 1015.3
20260905150023 88 219 1.0 3.0 0.00 0.00 0.00 58 1015.2
20260905145527 89 219 1.0 2.0 0.00 0.00 0.00 55 1015.2
20260905145030 89 219 1.0 3.0 0.00 0.00 0.00 52 1015.2
20260905144515 89 219 2.0 4.0 0.00 0.00 0.00 52 1015.1
20260905144019 90 219 1.0 4.0 0.00 0.00 0.00 52 1015.1
20260905143530 90 218 3.0 4.0 0.00 0.00 0.00 49 1015.1
20260905143025 91 213 2.0 4.0 0.00 0.00 0.00 47 1015.1
20260905142512 91 220 1.0 3.0 0.00 0.00 0.00 50 1015.1
20260905142014 92 220 1.0 3.0 0.00 0.00 0.00 52 1015.1
20260905141518 92 220 1.0 4.0 0.00 0.00 0.00 46 1015.1
20260905141020 92 215 2.0 4.0 0.00 0.00 0.00 47 1015.1
20260905140525 92 202 2.0 3.0 0.00 0.00 0.00 47 1015.2
20260905140020 92 202 1.0 4.0 0.00 0.00 0.00 44 1015.3
20260905135525 92 202 2.0 6.0 0.00 0.00 0.00 44 1015.3
20260905135030 92 200 3.0 6.0 0.00 0.00 0.00 46 1015.3
20260905134518 92 199 3.0 5.0 0.00 0.00 0.00 44 1015.3
20260905134021 92 209 1.0 4.0 0.00 0.00 0.00 43 1015.3
20260905133512 92 205 1.0 4.0 0.00 0.00 0.00 44 1015.3
20260905133027 92 197 1.0 6.0 0.00 0.00 0.00 43 1015.3
20260905132534 92 197 1.0 6.0 0.00 0.00 0.00 44 1015.4
20260905132016 92 204 3.0 5.0 0.00 0.00 0.00 42 1015.3
20260905131542 92 195 1.0 3.0 0.00 0.00 0.00 44 1015.2
20260905131021 91 196 1.0 5.0 0.00 0.00 0.00 43 1015.2
20260905130547 91 207 1.0 5.0 0.00 0.00 0.00 42 1015.2
20260905130021 91 215 2.0 6.0 0.00 0.00 0.00 42 1015.4
20260905125526 91 202 3.0 6.0 0.00 0.00 0.00 42 1015.5
20260905125048 91 221 2.0 7.0 0.00 0.00 0.00 41 1015.4
20260905124515 91 182 2.0 6.0 0.00 0.00 0.00 43 1015.5
20260905124017 91 183 1.0 6.0 0.00 0.00 0.00 41 1015.6
20260905123524 91 213 3.0 5.0 0.00 0.00 0.00 46 1015.7
20260905123040 91 229 1.0 6.0 0.00 0.00 0.00 41 1015.7
20260905122524 91 215 2.0 5.0 0.00 0.00 0.00 42 1015.8
20260905122027 91 207 1.0 4.0 0.00 0.00 0.00 46 1015.8
20260905121512 90 217 2.0 4.0 0.00 0.00 0.00 43 1015.8
20260905121034 90 223 2.0 6.0 0.00 0.00 0.00 45 1015.9
20260905120523 90 220 3.0 6.0 0.00 0.00 0.00 42 1015.9
20260905120018 90 207 3.0 6.0 0.00 0.00 0.00 42 1015.9
20260905115523 90 226 3.0 6.0 0.00 0.00 0.00 41 1015.8
20260905115026 90 207 3.0 6.0 0.00 0.00 0.00 44 1015.9
20260905114531 90 202 4.0 6.0 0.00 0.00 0.00 43 1015.9
20260905114016 90 43 0.0 5.0 0.00 0.00 0.00 41 1015.9
20260905113523 90 74 3.0 4.0 0.00 0.00 0.00 40 1015.9
20260905113015 90 221 2.0 4.0 0.00 0.00 0.00 40 1016.0
20260905112522 89 280 1.0 4.0 0.00 0.00 0.00 41 1016.0
20260905112025 89 240 2.0 4.0 0.00 0.00 0.00 43 1016.0
20260905111530 88 150 1.0 4.0 0.00 0.00 0.00 45 1016.0
20260905111017 88 103 1.0 4.0 0.00 0.00 0.00 46 1016.0
20260905110521 88 81 1.0 3.0 0.00 0.00 0.00 44 1015.9
20260905110015 87 70 2.0 3.0 0.00 0.00 0.00 46 1015.9
20260905105520 86 60 1.0 4.0 0.00 0.00 0.00 45 1016.0
20260905105043 85 61 2.0 4.0 0.00 0.00 0.00 51 1016.1
20260905104528 85 56 2.0 4.0 0.00 0.00 0.00 54 1016.1
20260905104030 84 56 3.0 4.0 0.00 0.00 0.00 59 1016.1
20260905103536 84 58 3.0 4.0 0.00 0.00 0.00 60 1016.2
20260905103030 84 57 2.0 4.0 0.00 0.00 0.00 62 1016.2
20260905102517 83 55 2.0 4.0 0.00 0.00 0.00 63 1016.3
20260905102041 82 50 2.0 4.0 0.00 0.00 0.00 65 1016.3
20260905101525 81 49 3.0 4.0 0.00 0.00 0.00 64 1016.3
20260905101027 81 49 3.0 5.0 0.00 0.00 0.00 68 1016.3
20260905100512 81 47 3.0 5.0 0.00 0.00 0.00 68 1016.4
20260905100025 80 46 2.0 5.0 0.00 0.00 0.00 68 1016.5
20260905095531 80 46 3.0 4.0 0.00 0.00 0.00 68 1016.5
20260905095018 80 47 3.0 4.0 0.00 0.00 0.00 68 1016.5
20260905094526 80 47 1.0 3.0 0.00 0.00 0.00 68 1016.5
20260905094030 80 47 1.0 3.0 0.00 0.00 0.00 69 1016.4
20260905093518 80 47 2.0 4.0 0.00 0.00 0.00 69 1016.4
20260905093012 79 47 2.0 5.0 0.00 0.00 0.00 69 1016.4
20260905092517 79 47 3.0 5.0 0.00 0.00 0.00 68 1016.4
20260905092020 79 48 3.0 5.0 0.00 0.00 0.00 69 1016.4
20260905091525 79 48 2.0 4.0 0.00 0.00 0.00 69 1016.4
20260905091030 79 49 2.0 4.0 0.00 0.00 0.00 70 1016.4
20260905090517 78 49 3.0 5.0 0.00 0.00 0.00 70 1016.4
20260905090034 78 48 3.0 4.0 0.00 0.00 0.00 70 1016.4
20260905085539 78 47 2.0 5.0 0.00 0.00 0.00 70 1016.4
20260905085020 78 48 3.0 5.0 0.00 0.00 0.00 69 1016.4
20260905084524 78 46 3.0 5.0 0.00 0.00 0.00 68 1016.4
20260905084046 78 46 3.0 5.0 0.00 0.00 0.00 69 1016.3
20260905083516 78 46 3.0 5.0 0.00 0.00 0.00 70 1016.4
20260905083030 78 45 3.0 5.0 0.00 0.00 0.00 69 1016.4
20260905082515 78 47 3.0 5.0 0.00 0.00 0.00 71 1016.4
20260905082018 77 48 4.0 5.0 0.00 0.00 0.00 71 1016.4
20260905081524 77 47 3.0 5.0 0.00 0.00 0.00 72 1016.3
20260905081028 77 48 3.0 5.0 0.00 0.00 0.00 72 1016.2
20260905080514 76 49 3.0 4.0 0.00 0.00 0.00 73 1016.2
20260905080025 76 51 3.0 4.0 0.00 0.00 0.00 73 1016.2
20260905075529 76 51 2.0 5.0 0.00 0.00 0.00 74 1016.2
20260905075012 75 50 4.0 5.0 0.00 0.00 0.00 74 1016.3
20260905074518 75 48 3.0 6.0 0.00 0.00 0.00 75 1016.3
20260905074019 74 49 3.0 7.0 0.00 0.00 0.00 76 1016.4
20260905073544 73 49 5.0 7.0 0.00 0.00 0.00 76 1016.4
20260905073018 73 47 5.0 7.0 0.00 0.00 0.00 77 1016.3
20260905072522 72 20 4.0 8.0 0.00 0.00 0.00 76 1016.3
20260905072026 72 348 4.0 8.0 0.00 0.00 0.00 78 1016.3
20260905071536 71 327 4.0 6.0 0.00 0.00 0.00 79 1016.3
20260905071019 71 317 4.0 6.0 0.00 0.00 0.00 79 1016.2
20260905070527 70 306 4.0 7.0 0.00 0.00 0.00 80 1016.2
20260905070024 69 296 3.0 5.0 0.00 0.00 0.00 81 1016.3
20260905065529 69 294 3.0 5.0 0.00 0.00 0.00 81 1016.3
20260905065031 69 292 0.0 5.0 0.00 0.00 0.00 83 1016.3
20260905064519 68 292 3.0 5.0 0.00 0.00 0.00 82 1016.3
20260905064023 68 288 4.0 5.0 0.00 0.00 0.00 83 1016.3
20260905063526 68 284 3.0 7.0 0.00 0.00 0.00 84 1016.3
20260905063020 67 284 4.0 7.0 0.00 0.00 0.00 84 1016.2
20260905062526 67 273 3.0 6.0 0.00 0.00 0.00 86 1016.2
20260905062029 66 272 3.0 6.0 0.00 0.00 0.00 86 1016.2
20260905061515 66 267 3.0 6.0 0.00 0.00 0.00 86 1016.1
20260905061017 65 263 3.0 6.0 0.00 0.00 0.00 87 1016.0
20260905060542 65 261 4.0 6.0 0.00 0.00 0.00 87 1016.0
20260905060021 65 257 4.0 4.0 0.00 0.00 0.00 87 1016.0
20260905055527 64 253 3.0 4.0 0.00 0.00 0.00 88 1016.0
20260905055030 64 252 3.0 4.0 0.00 0.00 0.00 88 1016.1
20260905054515 64 252 2.0 4.0 0.00 0.00 0.00 89 1016.0
20260905054017 64 252 3.0 4.0 0.00 0.00 0.00 89 1016.1
20260905053523 64 251 2.0 4.0 0.00 0.00 0.00 90 1016.2
20260905053018 64 250 2.0 5.0 0.00 0.00 0.00 90 1016.2
20260905052525 63 250 3.0 4.0 0.00 0.00 0.00 90 1016.2
20260905052027 63 250 1.0 3.0 0.00 0.00 0.00 90 1016.1
20260905051513 63 250 0.0 2.0 0.00 0.00 0.00 90 1016.1
20260905051017 63 250 0.0 3.0 0.00 0.00 0.00 90 1016.1
20260905050525 63 250 1.0 3.0 0.00 0.00 0.00 90 1016.1
20260905050025 63 250 1.0 3.0 0.00 0.00 0.00 90 1016.2
20260905045531 63 250 1.0 2.0 0.00 0.00 0.00 90 1016.2
20260905045015 63 250 0.0 4.0 0.00 0.00 0.00 90 1016.2
20260905044520 63 250 2.0 4.0 0.00 0.00 0.00 90 1016.1
20260905044023 63 250 2.0 3.0 0.00 0.00 0.00 90 1016.0
20260905043527 63 250 1.0 4.0 0.00 0.00 0.00 90 1015.9
20260905043021 63 249 2.0 4.0 0.00 0.00 0.00 90 1016.0
20260905042527 63 249 2.0 3.0 0.00 0.00 0.00 90 1015.9
20260905042028 63 249 1.0 3.0 0.00 0.00 0.00 90 1016.0
20260905041533 63 249 0.0 0.0 0.00 0.00 0.00 90 1016.0
20260905041035 63 249 0.0 2.0 0.00 0.00 0.00 90 1016.0
20260905040519 63 249 0.0 4.0 0.00 0.00 0.00 90 1016.0
20260905040013 63 249 1.0 4.0 0.00 0.00 0.00 90 1016.0
20260905035521 63 248 2.0 4.0 0.00 0.00 0.00 90 1016.0
20260905035024 64 248 1.0 3.0 0.00 0.00 0.00 90 1016.1
20260905034514 64 248 1.0 2.0 0.00 0.00 0.00 91 1016.1
20260905034016 64 248 0.0 2.0 0.00 0.00 0.00 91 1016.1
20260905033521 63 248 0.0 3.0 0.00 0.00 0.00 90 1016.0
20260905033034 64 248 1.0 3.0 0.00 0.00 0.00 90 1016.0
20260905032518 64 248 2.0 3.0 0.00 0.00 0.00 91 1015.9
20260905032022 64 248 1.0 2.0 0.00 0.00 0.00 91 1016.0
20260905031528 64 248 0.0 3.0 0.00 0.00 0.00 91 1016.0
20260905031030 64 248 1.0 3.0 0.00 0.00 0.00 91 1016.0
20260905030517 64 248 0.0 3.0 0.00 0.00 0.00 90 1016.0
20260905030013 64 248 0.0 3.0 0.00 0.00 0.00 90 1016.0
20260905025520 64 248 1.0 2.0 0.00 0.00 0.00 90 1016.0
20260905025020 64 248 1.0 2.0 0.00 0.00 0.00 90 1016.1
20260905024524 64 248 1.0 2.0 0.00 0.00 0.00 90 1016.0
20260905024027 64 248 1.0 2.0 0.00 0.00 0.00 91 1016.1
20260905023517 64 248 0.0 2.0 0.00 0.00 0.00 91 1016.1
20260905023030 64 248 0.0 2.0 0.00 0.00 0.00 91 1016.1
20260905022535 64 248 0.0 2.0 0.00 0.00 0.00 91 1016.1
20260905022017 64 248 0.0 2.0 0.00 0.00 0.00 91 1016.1
20260905021524 64 248 0.0 3.0 0.00 0.00 0.00 91 1016.1
20260905021028 64 248 1.0 3.0 0.00 0.00 0.00 91 1016.1
20260905020514 64 248 1.0 3.0 0.00 0.00 0.00 91 1016.1
20260905020048 64 248 1.0 3.0 0.00 0.00 0.00 90 1016.1
20260905015513 64 248 0.0 1.0 0.00 0.00 0.00 89 1016.1
20260905015016 64 248 0.0 0.0 0.00 0.00 0.00 89 1016.2
20260905014521 64 248 0.0 0.0 0.00 0.00 0.00 89 1016.2
20260905014045 64 248 0.0 0.0 0.00 0.00 0.00 89 1016.1
20260905013528 64 248 0.0 0.0 0.00 0.00 0.00 89 1016.2
20260905013043 64 248 0.0 0.0 0.00 0.00 0.00 89 1016.3
20260905012528 64 248 0.0 0.0 0.00 0.00 0.00 89 1016.3
20260905012016 64 248 0.0 0.0 0.00 0.00 0.00 89 1016.4
20260905011522 64 248 0.0 0.0 0.00 0.00 0.00 89 1016.4
20260905011044 64 248 0.0 0.0 0.00 0.00 0.00 89 1016.4
20260905010550 64 248 0.0 0.0 0.00 0.00 0.00 89 1016.4
20260905010044 64 248 0.0 0.0 0.00 0.00 0.00 88 1016.5
20260905005528 65 248 0.0 0.0 0.00 0.00 0.00 89 1016.5
20260905005030 65 248 0.0 0.0 0.00 0.00 0.00 88 1016.5
20260905004516 65 248 0.0 0.0 0.00 0.00 0.00 88 1016.5
20260905004016 65 248 0.0 0.0 0.00 0.00 0.00 88 1016.6
20260905003522 65 248 0.0 0.0 0.00 0.00 0.00 88 1016.6
20260905003016 65 248 0.0 0.0 0.00 0.00 0.00 88 1016.6
20260905002523 65 248 0.0 0.0 0.00 0.00 0.00 88 1016.7
20260905002026 65 248 0.0 1.0 0.00 0.00 0.00 88 1016.7
20260905001532 65 248 0.0 1.0 0.00 0.00 0.00 88 1016.8
20260905001035 65 248 0.0 1.0 0.00 0.00 0.00 88 1016.8
20260905000525 65 248 0.0 0.0 0.00 0.00 0.00 88 1016.8
20260905000021 65 248 0.0 0.0 0.00 0.00 0.00 88 1016.8
20260904235528 65 248 0.0 0.0 0.00 0.00 0.00 88 1016.9
20260904235030 65 248 0.0 0.0 0.00 0.00 0.00 87 1016.9
20260904234515 65 248 0.0 0.0 0.00 0.00 0.00 87 1017.0
20260904234016 65 248 0.0 0.0 0.00 0.00 0.00 87 1017.0
20260904233542 65 248 0.0 0.0 0.00 0.00 0.00 87 1017.0
20260904233016 66 248 0.0 0.0 0.00 0.00 0.00 87 1017.0
20260904232521 66 248 0.0 0.0 0.00 0.00 0.00 87 1017.1
20260904232043 66 248 0.0 0.0 0.00 0.00 0.00 87 1017.1
20260904231529 66 248 0.0 0.0 0.00 0.00 0.00 87 1017.2
20260904231032 66 248 0.0 0.0 0.00 0.00 0.00 87 1017.1
20260904230518 66 248 0.0 0.0 0.00 0.00 0.00 87 1017.1
20260904230033 66 248 0.0 0.0 0.00 0.00 0.00 86 1017.1
20260904225516 66 248 0.0 0.0 0.00 0.00 0.00 86 1017.1
20260904225039 66 248 0.0 0.0 0.00 0.00 0.00 86 1017.0
20260904224527 66 248 0.0 0.0 0.00 0.00 0.00 86 1017.1
20260904224030 66 248 0.0 0.0 0.00 0.00 0.00 86 1017.1
20260904223517 66 248 0.0 0.0 0.00 0.00 0.00 86 1017.2
20260904223014 67 248 0.0 0.0 0.00 0.00 0.00 86 1017.1
20260904222519 67 248 0.0 0.0 0.00 0.00 0.00 86 1017.1
20260904222041 67 248 0.0 0.0 0.00 0.00 0.00 85 1017.2
20260904221546 67 248 0.0 0.0 0.00 0.00 0.00 85 1017.1
20260904221026 67 248 0.0 1.0 0.00 0.00 0.00 85 1017.0
20260904220532 67 248 0.0 1.0 0.00 0.00 0.00 85 1017.0
20260904220027 67 248 0.0 1.0 0.00 0.00 0.00 85 1017.0
20260904215514 67 248 0.0 1.0 0.00 0.00 0.00 85 1017.0
20260904215039 67 248 0.0 0.0 0.00 0.00 0.00 85 1017.0
20260904214523 67 248 0.0 0.0 0.00 0.00 0.00 85 1017.0
20260904214028 67 248 0.0 0.0 0.00 0.00 0.00 85 1017.0
20260904213517 67 248 0.0 1.0 0.00 0.00 0.00 85 1017.0
20260904213033 68 248 0.0 1.0 0.00 0.00 0.00 84 1017.0
20260904212518 68 248 0.0 0.0 0.00 0.00 0.00 84 1017.0
20260904212042 68 248 0.0 0.0 0.00 0.00 0.00 84 1017.0
20260904211547 68 248 0.0 1.0 0.00 0.00 0.00 84 1017.1
20260904211047 68 248 0.0 1.0 0.00 0.00 0.00 84 1017.1
20260904210552 68 248 0.0 0.0 0.00 0.00 0.00 84 1017.1
20260904210026 68 248 0.0 0.0 0.00 0.00 0.00 84 1017.0
20260904205531 68 248 0.0 0.0 0.00 0.00 0.00 83 1017.0
20260904205014 68 248 0.0 0.0 0.00 0.00 0.00 83 1017.0
20260904204520 68 248 0.0 0.0 0.00 0.00 0.00 83 1017.0
20260904204021 69 248 0.0 0.0 0.00 0.00 0.00 83 1017.0
20260904203527 69 248 0.0 0.0 0.00 0.00 0.00 83 1017.0
20260904203024 69 248 0.0 1.0 0.00 0.00 0.00 83 1017.0
20260904202550 69 248 0.0 1.0 0.00 0.00 0.00 82 1017.1
20260904202014 69 248 0.0 0.0 0.00 0.00 0.00 83 1017.1
20260904201519 69 248 0.0 0.0 0.00 0.00 0.00 83 1017.1
20260904201021 70 248 0.0 0.0 0.00 0.00 0.00 82 1017.1
20260904200548 70 248 0.0 0.0 0.00 0.00 0.00 82 1017.1
20260904200022 70 248 0.0 0.0 0.00 0.00 0.00 82 1017.1
20260904195528 70 248 0.0 0.0 0.00 0.00 0.00 82 1017.1
20260904195031 70 248 0.0 0.0 0.00 0.00 0.00 82 1017.0